| time (UTC) | temp F | wind direction | speed MPH | gust MPH | rain 1hr in | rain 24hr in | rain mn in | humidity % | barometer mb |
| 20260509220804 | 47 | 229 | 0.0 | 0.0 | 0.00 | 0.33 | 0.33 | 85 | 1007.0 |
| 20260509215805 | 47 | 229 | 0.0 | 0.0 | 0.00 | 0.33 | 0.33 | 84 | 1007.3 |
| 20260509214805 | 47 | 229 | 0.0 | 1.0 | 0.00 | 0.33 | 0.33 | 84 | 1007.3 |
| 20260509214304 | 47 | 229 | 0.0 | 0.0 | 0.01 | 0.33 | 0.33 | 84 | 1007.4 |
| 20260509211805 | 48 | 244 | 0.0 | 0.0 | 0.02 | 0.33 | 0.33 | 84 | 1007.6 |
| 20260509210805 | 47 | 244 | 0.0 | 0.0 | 0.02 | 0.33 | 0.33 | 84 | 1007.6 |
| 20260509210304 | 47 | 244 | 0.0 | 0.0 | 0.03 | 0.33 | 0.33 | 84 | 1007.6 |
| 20260509204305 | 47 | 244 | 0.0 | 0.0 | 0.04 | 0.32 | 0.32 | 85 | 1007.6 |
| 20260509203804 | 47 | 244 | 0.0 | 0.0 | 0.05 | 0.32 | 0.32 | 85 | 1007.6 |
| 20260509200804 | 48 | 319 | 0.0 | 0.0 | 0.06 | 0.31 | 0.31 | 86 | 1007.8 |
| 20260509200304 | 48 | 319 | 0.0 | 0.0 | 0.05 | 0.30 | 0.30 | 86 | 1007.8 |
| 20260509195804 | 48 | 319 | 0.0 | 0.0 | 0.05 | 0.30 | 0.30 | 85 | 1007.8 |
| 20260509194304 | 47 | 319 | 0.0 | 0.0 | 0.05 | 0.28 | 0.28 | 85 | 1007.8 |
| 20260509193304 | 47 | 319 | 0.0 | 0.0 | 0.05 | 0.27 | 0.27 | 85 | 1008.4 |
| 20260509191804 | 47 | 319 | 0.0 | 0.0 | 0.05 | 0.26 | 0.26 | 85 | 1008.4 |
| 20260509190304 | 47 | 319 | 0.0 | 0.0 | 0.06 | 0.25 | 0.25 | 85 | 1008.4 |
| 20260509184304 | 46 | 321 | 0.0 | 0.0 | 0.06 | 0.23 | 0.23 | 84 | 1008.4 |
| 20260509182804 | 46 | 321 | 0.0 | 0.0 | 0.06 | 0.22 | 0.22 | 84 | 1008.4 |
| 20260509180304 | 46 | 321 | 0.0 | 0.0 | 0.06 | 0.19 | 0.19 | 83 | 1008.5 |
| 20260509173305 | 46 | 321 | 0.0 | 0.0 | 0.06 | 0.16 | 0.16 | 82 | 1009.0 |
| 20260509170305 | 45 | 321 | 0.0 | 0.0 | 0.06 | 0.13 | 0.13 | 82 | 1009.4 |
| 20260509165804 | 45 | 321 | 0.0 | 0.0 | 0.07 | 0.13 | 0.13 | 82 | 1009.4 |
| 20260509165306 | 45 | 321 | 0.0 | 0.0 | 0.06 | 0.12 | 0.12 | 82 | 1009.4 |
| 20260509164805 | 45 | 321 | 0.0 | 0.0 | 0.07 | 0.12 | 0.12 | 82 | 1009.5 |
| 20260509162804 | 45 | 321 | 0.0 | 0.0 | 0.08 | 0.10 | 0.10 | 81 | 1009.5 |
| 20260509160305 | 45 | 327 | 0.0 | 0.0 | 0.06 | 0.07 | 0.07 | 80 | 1009.9 |
| 20260509154804 | 45 | 325 | 0.0 | 0.0 | 0.04 | 0.05 | 0.05 | 79 | 1010.0 |
| 20260509152804 | 44 | 325 | 0.0 | 1.0 | 0.02 | 0.02 | 0.02 | 78 | 1010.0 |
| 20260509152306 | 44 | 74 | 0.0 | 0.0 | 0.02 | 0.02 | 0.02 | 77 | 1010.0 |
| 20260509151804 | 44 | 74 | 0.0 | 0.0 | 0.02 | 0.02 | 0.02 | 76 | 1010.0 |
| 20260509151304 | 45 | 74 | 0.0 | 0.0 | 0.02 | 0.02 | 0.02 | 75 | 1010.0 |
| 20260509150304 | 45 | 74 | 0.0 | 0.0 | 0.01 | 0.01 | 0.01 | 74 | 1010.0 |
| 20260509145805 | 45 | 74 | 0.0 | 0.0 | 0.01 | 0.01 | 0.01 | 74 | 1010.0 |
| 20260509144804 | 45 | 355 | 0.0 | 1.0 | 0.01 | 0.01 | 0.01 | 72 | 1009.9 |
| 20260509143804 | 45 | 11 | 0.0 | 0.0 | 0.00 | 0.00 | 0.00 | 71 | 1009.9 |
| 20260509143304 | 45 | 9 | 0.0 | 0.0 | 0.00 | 0.00 | 0.00 | 69 | 1009.9 |
| 20260509142307 | 45 | 44 | 0.0 | 0.0 | 0.00 | 0.00 | 0.00 | 67 | 1009.9 |
| 20260509140304 | 46 | 43 | 0.0 | 0.0 | 0.00 | 0.00 | 0.00 | 62 | 1009.9 |
| 20260509135804 | 46 | 43 | 0.0 | 0.0 | 0.00 | 0.00 | 0.00 | 61 | 1009.9 |
| 20260509135306 | 46 | 43 | 0.0 | 0.0 | 0.00 | 0.00 | 0.00 | 59 | 1009.9 |
| 20260509133804 | 45 | 43 | 0.0 | 0.0 | 0.00 | 0.00 | 0.00 | 58 | 1010.0 |
| 20260509133304 | 45 | 43 | 0.0 | 1.0 | 0.00 | 0.00 | 0.00 | 58 | 1010.0 |
| 20260509132805 | 45 | 79 | 0.0 | 0.0 | 0.00 | 0.00 | 0.00 | 58 | 1010.0 |
| 20260509132306 | 45 | 79 | 0.0 | 0.0 | 0.00 | 0.00 | 0.00 | 59 | 1010.0 |
| 20260509131804 | 45 | 79 | 0.0 | 0.0 | 0.00 | 0.00 | 0.00 | 58 | 1010.0 |
| 20260509130805 | 45 | 79 | 0.0 | 0.0 | 0.00 | 0.00 | 0.00 | 60 | 1010.0 |
| 20260509130304 | 44 | 79 | 0.0 | 0.0 | 0.00 | 0.00 | 0.00 | 60 | 1010.0 |
| 20260509125804 | 44 | 79 | 0.0 | 0.0 | 0.00 | 0.00 | 0.00 | 60 | 1010.0 |
| 20260509125307 | 44 | 79 | 0.0 | 0.0 | 0.00 | 0.00 | 0.00 | 60 | 1010.0 |
| 20260509124804 | 43 | 79 | 0.0 | 0.0 | 0.00 | 0.00 | 0.00 | 62 | 1010.0 |
| 20260509124304 | 43 | 79 | 0.0 | 0.0 | 0.00 | 0.00 | 0.00 | 63 | 1010.0 |
| 20260509123804 | 42 | 79 | 0.0 | 0.0 | 0.00 | 0.00 | 0.00 | 63 | 1010.4 |
| 20260509122805 | 42 | 83 | 0.0 | 0.0 | 0.00 | 0.00 | 0.00 | 64 | 1010.4 |
| 20260509121804 | 41 | 83 | 0.0 | 0.0 | 0.00 | 0.00 | 0.00 | 66 | 1010.9 |
| 20260509121304 | 41 | 83 | 0.0 | 0.0 | 0.00 | 0.00 | 0.00 | 66 | 1010.9 |
| 20260509115804 | 40 | 83 | 0.0 | 0.0 | 0.00 | 0.00 | 0.00 | 68 | 1010.9 |
| 20260509114304 | 38 | 83 | 0.0 | 0.0 | 0.00 | 0.00 | 0.00 | 71 | 1010.9 |
| 20260509113805 | 38 | 83 | 0.0 | 0.0 | 0.00 | 0.00 | 0.00 | 73 | 1010.9 |
| 20260509111804 | 36 | 83 | 0.0 | 0.0 | 0.00 | 0.00 | 0.00 | 76 | 1010.5 |
| 20260509110304 | 35 | 83 | 0.0 | 0.0 | 0.00 | 0.00 | 0.00 | 77 | 1010.5 |
| 20260509105804 | 35 | 83 | 0.0 | 0.0 | 0.00 | 0.00 | 0.00 | 77 | 1010.5 |
| 20260509104805 | 35 | 83 | 0.0 | 0.0 | 0.00 | 0.00 | 0.00 | 78 | 1010.5 |
| 20260509103304 | 34 | 83 | 0.0 | 0.0 | 0.00 | 0.00 | 0.00 | 78 | 1010.5 |
| 20260509101804 | 34 | 83 | 0.0 | 0.0 | 0.00 | 0.00 | 0.00 | 79 | 1010.5 |
| 20260509101305 | 34 | 83 | 0.0 | 0.0 | 0.00 | 0.00 | 0.00 | 79 | 1010.5 |
| 20260509095306 | 33 | 83 | 0.0 | 0.0 | 0.00 | 0.00 | 0.00 | 78 | 1010.5 |
| 20260509094304 | 33 | 83 | 0.0 | 0.0 | 0.00 | 0.00 | 0.00 | 78 | 1010.3 |
| 20260509093804 | 33 | 83 | 0.0 | 0.0 | 0.00 | 0.00 | 0.00 | 78 | 1010.3 |
| 20260509093305 | 33 | 83 | 0.0 | 0.0 | 0.00 | 0.00 | 0.00 | 78 | 1010.1 |
| 20260509091804 | 33 | 83 | 0.0 | 0.0 | 0.00 | 0.00 | 0.00 | 77 | 1009.4 |
| 20260509091305 | 33 | 83 | 0.0 | 0.0 | 0.00 | 0.00 | 0.00 | 77 | 1009.4 |
| 20260509090805 | 33 | 83 | 0.0 | 0.0 | 0.00 | 0.00 | 0.00 | 77 | 1009.4 |
| 20260509090304 | 33 | 83 | 0.0 | 0.0 | 0.00 | 0.00 | 0.00 | 76 | 1009.4 |
| 20260509085306 | 33 | 83 | 0.0 | 0.0 | 0.00 | 0.00 | 0.00 | 76 | 1009.4 |
| 20260509084305 | 33 | 83 | 0.0 | 0.0 | 0.00 | 0.00 | 0.00 | 76 | 1009.4 |
| 20260509082804 | 34 | 83 | 0.0 | 0.0 | 0.00 | 0.00 | 0.00 | 76 | 1009.4 |
| 20260509082307 | 34 | 83 | 0.0 | 0.0 | 0.00 | 0.00 | 0.00 | 76 | 1009.4 |
| 20260509081305 | 34 | 83 | 0.0 | 0.0 | 0.00 | 0.00 | 0.00 | 75 | 1009.4 |
| 20260509080304 | 34 | 83 | 0.0 | 0.0 | 0.00 | 0.00 | 0.00 | 75 | 1009.4 |
| 20260509075805 | 34 | 83 | 0.0 | 0.0 | 0.00 | 0.00 | 0.00 | 75 | 1009.4 |
| 20260509075306 | 34 | 83 | 0.0 | 0.0 | 0.00 | 0.00 | 0.00 | 75 | 1009.4 |
| 20260509072805 | 35 | 83 | 0.0 | 1.0 | 0.00 | 0.00 | 0.00 | 74 | 1009.7 |
| 20260509071804 | 35 | 84 | 0.0 | 0.0 | 0.00 | 0.00 | 0.00 | 74 | 1009.7 |
| 20260509071305 | 35 | 84 | 0.0 | 0.0 | 0.00 | 0.00 | 0.00 | 74 | 1009.7 |
| 20260509070305 | 36 | 84 | 0.0 | 0.0 | 0.00 | 0.00 | 0.00 | 73 | 1009.8 |
| 20260509065306 | 36 | 84 | 0.0 | 0.0 | 0.00 | 0.00 | 0.00 | 73 | 1009.8 |
| 20260509064304 | 36 | 84 | 0.0 | 0.0 | 0.00 | 0.00 | 0.00 | 73 | 1009.9 |
| 20260509063304 | 36 | 84 | 0.0 | 0.0 | 0.00 | 0.00 | 0.00 | 72 | 1009.9 |
| 20260509062804 | 37 | 84 | 0.0 | 0.0 | 0.00 | 0.00 | 0.00 | 72 | 1009.9 |
| 20260509061805 | 37 | 84 | 0.0 | 0.0 | 0.00 | 0.00 | 0.00 | 71 | 1009.9 |
| 20260509061304 | 37 | 84 | 0.0 | 0.0 | 0.00 | 0.00 | 0.00 | 71 | 1009.9 |
| 20260509060804 | 37 | 84 | 0.0 | 0.0 | 0.00 | 0.00 | 0.00 | 71 | 1009.9 |
| 20260509055306 | 38 | 84 | 0.0 | 0.0 | 0.00 | 0.00 | 0.00 | 70 | 1009.9 |
| 20260509053805 | 38 | 84 | 0.0 | 0.0 | 0.00 | 0.00 | 0.00 | 69 | 1009.5 |
| 20260509053305 | 38 | 84 | 0.0 | 0.0 | 0.00 | 0.00 | 0.00 | 69 | 1009.5 |
| 20260509052805 | 38 | 84 | 0.0 | 0.0 | 0.00 | 0.00 | 0.00 | 69 | 1009.5 |
| 20260509052307 | 39 | 84 | 0.0 | 0.0 | 0.00 | 0.00 | 0.00 | 68 | 1009.5 |
| 20260509051805 | 39 | 84 | 0.0 | 0.0 | 0.00 | 0.00 | 0.00 | 68 | 1009.4 |
| 20260509050804 | 39 | 84 | 0.0 | 0.0 | 0.00 | 0.00 | 0.00 | 67 | 1009.4 |
| 20260509050305 | 39 | 84 | 0.0 | 0.0 | 0.00 | 0.00 | 0.00 | 67 | 1009.4 |
| 20260509045804 | 39 | 84 | 0.0 | 0.0 | 0.00 | 0.00 | 0.00 | 67 | 1009.4 |
| 20260509044804 | 40 | 84 | 0.0 | 0.0 | 0.00 | 0.00 | 0.00 | 66 | 1009.4 |
| 20260509043804 | 40 | 84 | 0.0 | 0.0 | 0.00 | 0.00 | 0.00 | 66 | 1009.4 |
| 20260509043304 | 40 | 84 | 0.0 | 0.0 | 0.00 | 0.00 | 0.00 | 66 | 1009.4 |
| 20260509042307 | 40 | 84 | 0.0 | 0.0 | 0.00 | 0.00 | 0.00 | 66 | 1009.3 |
| 20260509041304 | 41 | 84 | 0.0 | 0.0 | 0.00 | 0.00 | 0.00 | 65 | 1009.3 |
| 20260509040304 | 41 | 84 | 0.0 | 0.0 | 0.00 | 0.00 | 0.00 | 64 | 1009.3 |
| 20260509035804 | 41 | 84 | 0.0 | 0.0 | 0.00 | 0.00 | 0.00 | 64 | 1009.0 |
| 20260509035306 | 42 | 84 | 0.0 | 0.0 | 0.00 | 0.00 | 0.00 | 63 | 1009.0 |
| 20260509033305 | 42 | 84 | 0.0 | 0.0 | 0.00 | 0.00 | 0.00 | 61 | 1008.8 |
| 20260509032804 | 43 | 84 | 0.0 | 0.0 | 0.00 | 0.00 | 0.00 | 61 | 1008.8 |
| 20260509032306 | 43 | 84 | 0.0 | 0.0 | 0.00 | 0.00 | 0.00 | 60 | 1008.8 |
| 20260509031305 | 43 | 84 | 0.0 | 0.0 | 0.00 | 0.00 | 0.00 | 59 | 1008.8 |
| 20260509030805 | 43 | 84 | 0.0 | 0.0 | 0.00 | 0.00 | 0.00 | 59 | 1008.8 |
| 20260509025805 | 44 | 84 | 0.0 | 0.0 | 0.00 | 0.00 | 0.00 | 57 | 1008.3 |
| 20260509025306 | 44 | 84 | 0.0 | 0.0 | 0.00 | 0.00 | 0.00 | 57 | 1008.3 |
| 20260509024804 | 44 | 84 | 0.0 | 0.0 | 0.00 | 0.00 | 0.00 | 56 | 1008.3 |
| 20260509023804 | 45 | 84 | 0.0 | 0.0 | 0.00 | 0.00 | 0.00 | 55 | 1008.3 |
| 20260509022805 | 45 | 84 | 0.0 | 0.0 | 0.00 | 0.00 | 0.00 | 54 | 1008.3 |
| 20260509021305 | 45 | 84 | 0.0 | 0.0 | 0.00 | 0.00 | 0.00 | 53 | 1008.3 |
| 20260509020804 | 46 | 84 | 0.0 | 0.0 | 0.00 | 0.00 | 0.00 | 53 | 1008.2 |
| 20260509020304 | 46 | 84 | 0.0 | 0.0 | 0.00 | 0.00 | 0.00 | 53 | 1008.2 |
| 20260509015306 | 46 | 84 | 0.0 | 0.0 | 0.00 | 0.00 | 0.00 | 51 | 1008.1 |
| 20260509014804 | 46 | 84 | 0.0 | 0.0 | 0.00 | 0.00 | 0.00 | 51 | 1006.8 |
| 20260509012804 | 46 | 84 | 0.0 | 0.0 | 0.00 | 0.00 | 0.00 | 51 | 1006.8 |
| 20260509004804 | 48 | 84 | 0.0 | 0.0 | 0.00 | 0.00 | 0.00 | 49 | 1006.8 |
| 20260509003804 | 49 | 84 | 0.0 | 0.0 | 0.00 | 0.00 | 0.00 | 46 | 1006.8 |
| 20260509002306 | 49 | 84 | 0.0 | 0.0 | 0.00 | 0.00 | 0.00 | 46 | 1005.8 |
| 20260509001304 | 49 | 84 | 0.0 | 0.0 | 0.00 | 0.00 | 0.00 | 43 | 1005.8 |
| 20260508235306 | 50 | 169 | 0.0 | 0.0 | 0.00 | 0.00 | 0.00 | 42 | 1005.8 |
| 20260508232804 | 51 | 109 | 0.0 | 0.0 | 0.00 | 0.00 | 0.00 | 42 | 1005.8 |
| 20260508232307 | 51 | 109 | 0.0 | 2.0 | 0.00 | 0.00 | 0.00 | 42 | 1005.8 |
| 20260508231804 | 51 | 232 | 0.0 | 2.0 | 0.00 | 0.00 | 0.00 | 42 | 1005.8 |
| 20260508231304 | 51 | 232 | 0.0 | 0.0 | 0.00 | 0.00 | 0.00 | 41 | 1005.8 |
| 20260508230804 | 51 | 232 | 0.0 | 6.0 | 0.00 | 0.00 | 0.00 | 41 | 1005.8 |
| 20260508225307 | 51 | 166 | 0.0 | 3.0 | 0.00 | 0.00 | 0.00 | 41 | 1005.8 |
| 20260508224804 | 52 | 16 | 1.0 | 3.0 | 0.00 | 0.00 | 0.00 | 41 | 1005.8 |
| 20260508224304 | 52 | 86 | 1.0 | 3.0 | 0.00 | 0.00 | 0.00 | 41 | 1005.8 |
| 20260508223304 | 53 | 355 | 1.0 | 9.0 | 0.00 | 0.00 | 0.00 | 38 | 1005.5 |
| 20260508222804 | 53 | 91 | 0.0 | 3.0 | 0.00 | 0.00 | 0.00 | 37 | 1005.5 |